Weather Roundup
Issued by NWS

Home | Current Version | Previous Version | Graphics & Text | Print | Product List | Glossary Off
Versions: 1 2 3 4 5 6 7 8 9 10 11 12 13 14 15 16 17 18 19 20 21 22 23 24 25 26 27 28 29 30 31 32 33 34 35 36 37 38 39 40 41 42 43 44 45 46 47 48 49 50

000
NZUS93 KARX 310810
HRRWXR

CURRENT HOURLY OBSERVATIONS ACROSS
MUCH OF THE UPPER MISSISSIPPI VALLEY
NATIONAL WEATHER SERVICE LA CROSSE WI
300 AM CDT MON AUG 31 2015


...SOUTHEAST MINNESOTA...


CITY           SKY/WX    TMP DP  RH WIND       PRES   REMARKS
ROCHESTER      CLEAR     60  59  96 S7        29.99F FOG
ROCHESTER/MAYO FAIR      62  62 100 SE5       29.99S
WINONA         CLEAR     59  59 100 CALM      29.99S
AUSTIN         NOT AVBL
ALBERT LEA     MOCLDY    64  64 100 S6        29.98S FOG
DODGE CENTER   CLEAR     64  63  94 S8        29.98S FOG
PRESTON        MOCLDY    62  60  94 S7        30.01S FOG
OWATONNA       CLEAR     64  61  88 S9        29.97R FOG
FARIBAULT      CLEAR     63  61  94 S6        29.96S FOG
$$

...ELSEWHERE IN MINNESOTA...


CITY           SKY/WX    TMP DP  RH WIND       PRES   REMARKS
MINNEAPOLIS    MOCLDY    65  63  93 SE6       29.93F
INTNL FALLS    MOCLDY    66  64  93 VRB3      29.77S
DULUTH         MOCLDY    66  64  93 SW13      29.89F
RED WING       CLEAR     63  61  94 SE5       29.96S
REDWOOD FALLS  PTCLDY    65  63  93 S9        29.88S
MANKATO        CLEAR     64  61  88 S9        29.94S
WORTHINGTON    CLEAR     64  61  88 S15       29.93S
FAIRMONT       CLEAR     64  59  82 S7        29.94F
$$

...SOUTHWEST WISCONSIN...


CITY           SKY/WX    TMP DP  RH WIND       PRES   REMARKS
LA CROSSE      MOCLDY    63  62  97 S6        30.00S FOG
PRAIRIE DU CHI CLOUDY    60  59  96 CALM      30.01S FOG
BOSCOBEL       FOG       59  58  96 CALM      30.02S VSB 1/4
LONE ROCK      FOG       58  57  97 CALM      30.03S VSB 1/4
PLATTEVILLE    CLEAR     61  61 100 S3        30.03S
FORT MC COY    PTCLDY    55  53  95 CALM      30.02S
CAMP DOUGLAS   FOG       54  54 100 SE2       30.01S VSB 1/4
VIROQUA          N/A     60  60 100 CALM      30.03R VSB 1/2
WIS DELLS      FOG       60  58  95 CALM      30.02S VSB 1/2
$$

...ELSEWHERE IN WISCONSIN...


CITY           SKY/WX    TMP DP  RH WIND       PRES   REMARKS
MILWAUKEE      CLEAR     61  60  97 SW6       30.03R FOG
MADISON        FOG       60  59  96 CALM      30.02S VSB 1/4
GREEN BAY      CLEAR     63  61  93 SW5       30.00S FOG
EAU CLAIRE     CLEAR     62  60  93 S5        29.97S
BLACK RVR FLS  FOG       54  54 100 CALM      30.00S VSB<1/4
MEDFORD        FOG       61  61 100 SW5       30.02R VSB 1/4
WAUSAU         CLEAR     64  62  93 SW10      30.00S
WIS RAPIDS     CLEAR     61  59  94 SW3       30.03R FOG
MARSHFIELD     FOG       61  58  90 SW3       30.01S VSB 1/4
RICE LAKE      MOCLDY    61  60  95 SE5       29.98S FOG
$$

...NORTHEAST IOWA...


CITY           SKY/WX    TMP DP  RH WIND       PRES   REMARKS
DECORAH        CLOUDY    64  64 100 S6        30.01S
MASON CITY     FOG       61  61 100 S6        30.00F VSB 1/4
CHARLES CITY   FOG       63  63 100 S6        30.02R VSB<1/4
OELWEIN        FOG       59  59 100 SE5       30.02F VSB 1
$$

...ELSEWHERE IN IOWA...


CITY           SKY/WX    TMP DP  RH WIND       PRES   REMARKS
DES MOINES     CLEAR     70  66  87 SE8       29.97F
IOWA CITY      FOG       62  61  96 CALM      30.02S VSB 1/4
FORT DODGE     CLEAR     64  63  94 S5        29.99S
$$

...NORTHERN ILLINOIS...


CITY           SKY/WX    TMP DP  RH WIND       PRES   REMARKS
CHICAGO-OHARE  FAIR      63  63 100 CALM      30.03S FOG
CHICAGO-MIDWAY CLEAR     67  64  90 CALM      30.03S FOG
MOLINE         CLEAR     62  59  90 SE3       30.02R
ROCKFORD       PTCLDY    60  58  92 CALM      30.05R FOG
PEORIA         CLEAR     68  64  87 E5        30.02S
$$

NOTE: "FAIR" INDICATES FEW OR NO CLOUDS BELOW 12,000 FEET WITH NO
SIGNIFICANT WEATHER AND/OR OBSTRUCTIONS TO VISIBILITY. WIND
SPEEDS ARE IN MILES-PER-HOUR.



USA.gov is the U.S. government's official web portal to all federal, state and local government web resources and services.